Theta_e
331 335 341 346 352 354 354 354 354 354 354 354 354 354 353 354 353 351 351 350 350 349 349 348 347 347 348 348 348 348 349 350 350 350 350 350 350 350 350 350 351 351 351 351 351 350 349 348 348 347 347 347 347 347 346 347 348 348 348 349 349 349 349 349 348 347 348 349 350 350 350 350 352 351 350 351 351 350 350 350 349 347 347 350 352
332 335 340 343 351 353 354 354 354 354 355 355 354 354 354 353 353 352 351 350 349 349 349 348 347 347 348 347 347 348 349 349 349 349 349 349 349 349 349 349 349 350 351 351 351 351 349 348 347 347 347 346 346 345 345 345 345 346 346 347 346 346 346 346 344 343 344 345 347 348 349 350 350 351 350 350 350 350 349 349 349 346 344 349 351
333 336 340 343 349 352 353 354 354 354 354 354 354 354 353 353 352 351 351 350 349 349 348 348 347 347 347 347 348 349 349 348 349 349 349 348 348 348 348 348 348 349 350 350 349 350 349 347 346 346 345 344 344 343 343 342 342 342 342 343 343 343 343 342 341 342 342 344 345 345 344 347 348 349 349 349 349 349 349 349 348 348 346 351 349
333 335 340 343 346 349 352 354 354 354 354 354 354 354 353 353 351 351 351 350 349 349 348 347 346 347 346 348 348 349 348 348 348 348 347 347 347 347 347 347 347 348 349 350 350 349 348 347 346 345 343 343 342 342 341 341 340 340 341 341 341 341 341 340 340 341 341 342 342 342 341 337 342 346 347 347 347 348 347 347 347 348 349 349 349
333 335 340 343 346 347 350 353 354 354 354 354 353 353 353 353 352 351 351 350 349 349 348 347 347 347 347 347 348 348 348 348 347 347 347 347 347 347 347 347 347 348 348 349 349 348 348 347 346 344 343 342 341 340 340 338 338 338 338 338 339 339 339 338 338 340 340 339 340 339 336 337 337 346 346 346 346 346 345 345 346 347 347 347 348
332 335 340 343 345 345 348 351 354 354 354 354 353 353 352 352 352 351 350 350 349 349 348 347 347 347 348 348 348 348 348 347 347 346 347 347 347 348 347 347 347 347 347 347 347 348 347 346 345 343 342 340 339 339 338 338 336 335 335 335 335 337 336 336 338 340 338 338 338 334 335 334 336 340 347 347 346 345 344 345 345 345 345 346 346
333 335 340 343 345 344 346 350 354 354 353 353 353 352 352 351 351 351 351 350 350 349 348 348 348 348 348 348 348 348 347 347 347 347 347 346 347 347 347 346 346 347 347 347 345 347 346 346 344 343 342 340 339 338 337 336 335 334 333 332 333 334 334 336 338 338 337 334 333 333 334 334 335 337 346 346 345 345 346 346 346 345 346 345 345
333 336 340 343 344 344 345 350 353 354 353 353 353 353 352 352 351 351 351 350 349 349 348 348 348 349 349 349 348 348 347 347 346 347 346 346 346 347 346 346 346 347 346 346 345 346 345 344 343 342 341 339 337 336 335 334 333 331 329 330 331 333 334 337 337 336 336 329 331 334 335 334 335 337 346 345 346 344 346 346 345 345 344 343 341
334 336 339 342 343 343 344 347 352 353 353 353 353 353 352 351 351 351 351 350 349 349 348 348 348 348 348 349 348 347 347 347 347 346 345 345 346 346 346 347 346 346 346 345 345 345 344 342 342 341 339 337 335 334 333 332 331 329 326 327 329 333 335 335 335 333 330 328 331 333 333 333 333 335 344 345 344 343 345 344 344 343 342 341 340
333 336 339 341 342 342 344 346 352 353 353 353 353 353 352 351 351 350 350 350 349 348 348 348 348 348 349 348 348 348 348 348 347 345 344 344 345 346 347 347 346 346 346 345 345 344 342 341 340 339 338 336 334 333 331 330 328 326 324 325 329 333 334 333 332 330 326 330 333 332 335 341 334 335 341 343 346 345 342 343 342 342 340 340 340
332 335 337 339 340 341 345 348 350 351 352 352 352 352 352 351 351 350 349 350 349 349 348 348 349 349 349 349 349 348 348 347 347 345 344 345 345 347 346 346 346 346 345 345 344 342 341 339 338 337 337 335 332 331 330 328 326 324 324 326 329 333 333 331 327 323 327 330 332 331 337 341 332 334 344 344 345 343 342 342 342 341 341 341 340
332 334 336 338 338 340 344 347 348 351 352 352 353 352 352 351 350 349 350 349 349 349 349 349 348 349 348 349 348 348 348 348 347 346 345 345 345 346 346 346 346 345 344 343 341 341 339 337 336 336 335 333 331 328 327 326 324 323 324 325 329 331 330 328 321 322 324 326 328 328 324 329 333 338 344 344 343 342 341 341 341 341 341 340 340
331 333 335 335 337 339 342 346 347 349 351 352 352 352 351 351 350 349 350 349 348 349 348 348 349 348 348 348 348 348 348 347 346 345 345 345 346 346 345 345 343 343 341 341 339 337 336 336 336 334 335 331 329 328 326 324 322 322 323 325 328 329 327 324 317 319 320 321 322 322 324 324 328 342 342 343 343 341 341 339 339 339 339 339 338
329 331 333 334 336 337 339 342 344 348 350 350 352 351 351 351 350 350 350 349 348 349 349 349 348 349 348 348 348 348 347 347 347 346 346 345 346 345 343 343 343 342 340 339 338 338 337 335 336 337 333 331 329 327 324 323 321 320 322 324 327 328 325 323 322 316 318 318 321 321 321 325 325 342 340 340 340 339 338 337 337 337 336 336 336
330 329 331 332 334 337 335 339 342 344 347 349 350 351 351 351 350 350 349 349 349 349 349 349 349 349 349 349 348 348 347 347 346 346 346 345 344 343 343 342 342 341 340 339 337 336 336 333 339 336 332 329 327 325 323 321 319 320 322 325 327 325 322 313 315 313 316 317 317 319 319 322 339 339 339 338 337 337 335 335 335 335 335 334 334
326 329 329 331 332 334 336 336 338 338 342 345 346 348 349 350 349 349 349 349 349 349 349 349 349 350 349 349 349 348 347 347 346 346 345 345 344 344 343 342 341 341 340 338 337 336 334 333 337 333 330 328 327 324 320 320 319 320 322 324 325 323 320 316 311 311 313 316 315 318 319 322 338 337 336 335 335 334 333 333 332 332 333 332 331
324 325 329 330 331 334 336 337 338 335 336 337 341 343 345 347 348 349 348 348 348 349 349 349 349 349 349 349 348 347 346 347 346 345 345 345 345 344 343 341 341 340 339 338 338 337 333 337 334 332 330 328 326 324 321 319 319 319 321 324 322 321 319 316 312 310 312 315 316 317 319 322 334 334 333 333 331 331 331 332 331 331 330 329 328
319 326 329 330 331 333 335 337 338 338 339 335 335 339 342 345 346 346 346 346 346 347 347 347 347 347 346 345 343 343 344 345 344 345 344 345 344 342 342 341 341 340 337 335 334 331 334 335 333 331 329 327 325 322 320 318 317 318 320 321 322 321 319 316 310 309 313 317 312 316 318 332 333 333 333 332 330 330 329 330 330 328 327 326 326
317 323 327 329 330 331 334 336 336 339 340 340 340 339 336 340 342 343 343 344 344 344 345 343 342 343 343 341 339 338 337 338 340 341 342 341 338 335 339 341 340 340 336 334 332 332 335 333 332 330 328 326 324 321 318 316 317 317 318 318 318 316 315 312 306 308 309 310 312 314 316 331 331 332 332 331 330 330 329 327 326 326 324 326 326
316 319 324 326 328 330 332 335 337 339 340 341 341 342 335 333 337 339 340 341 341 342 341 339 336 336 337 335 332 333 331 334 331 335 334 339 336 331 334 337 341 337 334 333 332 335 334 332 331 330 328 326 324 320 317 315 315 316 317 316 314 312 305 304 304 306 307 311 313 310 325 329 330 331 331 330 329 328 327 326 325 326 325 326 326
316 316 321 325 326 328 330 334 336 338 340 341 341 342 341 331 332 333 334 337 338 338 338 333 328 328 330 327 326 334 333 334 333 336 328 336 328 325 331 335 338 338 337 336 333 334 333 332 331 329 327 325 322 318 315 314 314 314 314 313 309 303 301 304 304 307 306 307 310 308 328 328 329 329 328 326 325 326 328 327 325 326 327 327 326
317 318 317 322 328 330 330 331 333 336 338 340 341 342 342 334 340 340 336 335 331 330 333 335 329 332 326 330 331 331 331 330 332 331 334 334 328 322 327 334 337 334 334 336 334 334 333 332 330 329 327 324 318 301 300 310 314 314 312 306 298 299 299 301 302 303 305 305 307 317 327 327 328 327 326 326 327 327 326 327 327 326 326 326 326
317 318 319 319 326 331 331 332 333 334 336 338 339 340 341 340 340 341 338 332 333 330 334 332 332 333 332 331 328 329 330 331 331 331 333 326 328 321 326 330 333 331 333 334 334 334 332 331 330 328 325 319 302 295 294 291 291 305 304 295 295 296 297 299 300 300 301 304 302 321 327 326 327 327 326 325 326 326 327 326 326 325 325 324 324
317 317 320 318 322 328 331 333 333 333 335 337 338 339 340 340 340 341 340 338 337 334 335 334 333 333 334 334 332 329 329 332 327 324 325 328 326 320 324 326 328 327 327 329 330 332 332 331 329 326 315 303 296 295 293 291 290 290 293 293 293 295 297 298 300 298 297 304 302 320 326 326 326 326 326 326 325 326 327 326 325 326 325 325 325
310 314 316 318 318 322 328 330 331 332 334 336 336 337 338 338 340 340 339 338 338 337 337 336 335 335 335 335 334 331 330 331 330 327 326 326 324 323 324 326 325 324 322 320 317 318 324 315 316 310 301 299 295 293 292 290 292 292 293 293 293 293 296 297 297 297 299 297 301 320 322 327 326 326 326 326 326 326 326 325 325 324 323 324 324
306 310 314 313 317 319 321 325 328 331 333 335 335 336 337 337 337 339 339 338 338 337 337 337 336 336 335 334 332 331 330 330 328 326 325 324 323 322 323 323 321 321 320 318 313 315 311 311 309 306 300 298 295 292 292 291 289 290 292 293 292 293 294 295 295 297 297 297 299 317 320 323 326 328 327 326 326 326 325 325 326 324 323 323 324
304 308 310 311 313 317 319 320 325 328 331 334 335 335 336 337 337 337 338 338 337 337 336 337 337 336 334 333 331 330 329 328 326 325 325 323 323 322 321 321 321 320 316 317 313 312 311 309 307 306 299 297 295 294 293 292 289 290 292 293 292 292 293 294 294 295 295 296 298 314 318 320 324 327 328 327 326 325 325 326 325 324 324 324 323
300 304 306 310 311 314 319 321 323 325 328 330 332 334 335 335 336 336 335 334 336 337 335 336 336 335 334 332 330 330 328 326 325 324 324 322 322 322 321 319 320 318 314 315 313 308 307 307 307 301 300 297 296 295 294 292 291 291 292 293 293 291 291 293 293 293 293 293 293 302 315 318 321 324 327 328 327 326 325 326 326 325 323 323 323
297 298 299 301 307 312 316 321 323 323 325 327 330 333 333 334 334 335 335 332 334 334 337 335 333 332 332 332 330 329 327 326 324 324 322 321 321 320 319 319 318 316 314 311 310 309 307 306 306 305 302 299 295 295 294 293 291 290 291 292 292 292 291 292 292 292 293 292 293 297 312 317 319 322 324 327 328 326 326 327 326 325 325 324 323
297 298 298 299 300 306 314 319 322 323 323 324 328 329 330 331 333 334 335 334 334 334 332 332 334 332 329 330 329 330 328 326 324 322 321 320 319 319 318 318 317 316 315 313 309 309 308 304 304 303 301 299 296 295 295 293 292 292 291 292 292 292 291 292 292 292 292 292 293 296 309 314 318 321 323 324 327 327 327 327 327 326 325 325 324
297 298 299 300 302 303 310 315 318 318 320 323 324 326 326 330 330 332 332 333 334 334 332 332 330 330 329 327 327 328 328 326 324 322 321 320 319 318 317 317 316 315 315 314 307 310 307 308 307 305 304 301 299 294 294 293 292 292 291 292 293 291 291 291 293 293 293 293 293 294 298 310 315 319 322 323 324 326 327 327 326 327 326 325 324
297 297 299 300 303 307 306 312 315 317 317 320 319 321 323 325 326 328 330 331 331 332 332 331 331 329 328 328 325 325 323 325 324 322 321 320 318 317 317 315 316 315 314 314 311 307 307 305 303 303 302 300 299 293 292 292 291 292 290 291 291 291 291 291 292 293 293 293 293 294 294 299 309 316 318 322 324 325 326 326 327 326 327 325 324
297 298 299 300 302 305 308 311 314 315 317 318 318 319 319 320 321 322 326 327 329 329 330 330 330 329 328 327 327 325 323 323 322 322 320 320 318 317 315 315 316 315 314 312 310 306 305 303 302 300 300 298 297 294 292 290 290 291 290 292 290 291 290 290 292 293 294 293 293 293 293 296 297 306 311 316 322 323 324 324 325 326 326 326 326
296 298 299 300 302 303 308 311 311 313 313 315 316 316 317 317 317 317 317 321 324 327 327 328 328 328 328 326 327 325 323 323 321 319 319 319 318 317 316 315 315 314 313 311 311 306 305 303 303 301 301 298 298 295 293 292 290 289 290 290 289 291 289 290 291 293 293 293 295 293 295 295 295 297 297 308 313 319 322 322 323 323 325 325 325
296 297 298 299 300 301 303 307 308 309 310 312 313 313 313 314 314 315 316 317 318 322 323 324 323 325 326 325 325 325 324 323 321 321 319 318 317 316 315 316 314 311 312 311 311 306 305 305 301 302 296 296 295 295 293 293 291 292 291 290 291 290 288 291 289 290 292 293 292 294 296 295 296 298 298 295 302 307 316 321 322 322 322 323 324
294 295 297 298 299 300 301 301 304 308 309 309 309 311 312 311 313 313 315 315 317 317 318 321 322 321 322 322 322 322 321 319 317 316 318 317 317 316 316 312 310 310 311 309 308 306 305 303 300 302 299 297 295 296 292 291 289 290 289 289 289 290 289 289 289 290 291 290 294 295 296 295 295 296 299 296 297 299 310 316 320 321 321 321 322
294 294 295 296 297 298 299 299 300 303 307 309 310 310 310 311 311 313 313 314 315 315 314 314 316 319 319 321 320 319 319 318 317 316 317 316 315 315 312 310 308 309 309 308 308 307 305 304 298 299 302 301 295 295 291 290 290 289 288 288 287 288 289 289 289 290 291 290 291 294 295 295 294 300 296 295 295 294 303 311 315 316 316 318 320
293 294 294 295 296 297 297 298 299 301 304 306 308 310 311 311 311 312 311 312 312 313 314 314 313 313 314 315 317 317 318 319 318 317 317 317 316 315 312 309 309 309 308 307 308 304 303 304 301 296 298 299 296 294 293 290 289 289 288 287 287 287 287 288 289 292 290 290 290 292 295 294 293 295 294 293 293 294 295 303 310 311 309 313 318
292 293 293 294 295 295 296 297 297 298 301 304 305 309 311 312 312 312 311 311 311 312 312 312 312 313 313 313 313 313 312 314 314 314 316 314 314 314 313 311 310 310 309 307 305 303 302 301 303 298 293 295 297 294 294 290 289 288 288 288 286 286 287 287 290 289 289 289 290 293 291 294 294 294 294 292 293 293 295 294 294 293 293 308 315
291 292 292 292 293 294 295 295 295 297 298 301 303 304 307 307 307 308 308 309 310 309 310 310 310 311 311 313 313 313 312 311 311 311 312 311 311 312 311 309 309 309 308 306 305 303 303 301 301 301 296 293 291 290 288 289 288 287 287 287 285 285 286 287 287 288 289 289 289 289 290 292 292 294 292 293 294 293 294 294 293 294 294 300 309
290 290 291 291 291 292 293 292 294 295 296 297 299 300 300 303 304 303 304 306 306 308 308 308 309 309 309 310 311 312 312 311 311 312 311 310 310 309 309 307 307 307 308 308 307 305 304 303 301 299 298 293 292 290 290 290 288 287 285 285 287 286 288 288 287 287 288 288 287 288 289 290 290 290 293 292 292 292 293 294 294 294 293 292 297
288 289 289 289 290 291 291 291 292 293 294 295 296 297 297 296 297 298 302 301 302 303 303 304 306 307 307 307 308 309 309 309 308 309 309 309 308 307 307 307 306 306 305 303 302 300 300 299 297 294 294 296 295 291 291 292 288 287 287 284 283 285 288 287 287 288 288 287 288 289 289 290 290 289 289 290 291 291 292 293 292 293 292 292 293
288 288 288 289 289 289 290 291 291 291 292 294 295 295 296 297 297 296 297 297 298 300 300 300 302 303 302 302 302 304 306 306 306 306 307 306 306 306 305 305 305 303 304 303 302 301 299 299 298 300 295 292 292 291 291 293 292 286 284 284 282 283 284 285 287 288 288 287 287 288 289 289 290 289 288 288 289 290 290 290 290 291 291 291 291
287 287 287 288 289 289 289 289 290 290 291 292 294 294 295 295 296 296 297 296 294 295 296 296 296 297 296 297 297 298 300 301 302 302 303 303 304 304 304 303 303 303 303 303 302 301 300 299 299 298 297 294 291 291 291 292 290 291 289 287 282 281 282 283 283 284 286 288 287 288 288 289 289 288 286 287 288 288 288 288 288 289 290 289 289
286 286 286 287 288 287 288 288 289 289 290 291 292 293 294 294 295 295 295 294 294 293 293 293 292 293 293 293 293 294 295 295 296 297 297 299 300 301 301 301 301 301 301 301 301 301 300 299 298 298 297 299 297 293 292 291 291 292 294 285 284 284 281 280 279 282 281 285 286 287 287 288 288 288 288 288 287 287 287 287 287 287 287 288 287
285 285 285 286 286 287 287 288 288 289 289 289 291 292 292 291 291 291 290 290 289 289 289 289 290 290 290 291 292 292 292 292 292 292 293 294 296 297 298 299 300 300 299 299 299 299 299 299 298 297 296 295 295 295 292 292 292 292 290 289 290 288 285 282 283 282 279 283 283 283 286 286 285 287 287 287 287 287 287 287 286 287 287 287 287
284 284 285 285 285 286 286 287 287 287 288 288 289 290 289 290 289 289 288 288 287 287 288 289 289 289 290 290 290 290 290 290 290 291 291 291 292 293 294 295 296 296 296 297 298 298 298 298 298 297 296 296 295 293 294 293 292 291 291 291 289 287 286 287 287 283 285 280 281 282 285 284 285 285 287 287 287 287 287 287 287 287 286 287 287
284 284 285 285 285 285 285 285 286 286 286 287 288 289 288 288 288 288 288 287 287 286 287 288 288 289 288 288 289 289 289 289 289 289 289 290 290 290 291 292 292 293 293 294 295 295 295 297 297 297 296 295 295 293 294 293 292 292 291 291 290 289 287 288 286 287 285 283 284 281 281 283 283 285 286 287 287 287 287 287 287 286 286 286 287
284 284 284 284 284 284 285 285 284 285 285 286 286 287 288 287 286 286 286 286 287 286 287 287 287 287 287 287 287 287 288 288 288 288 288 288 289 289 290 290 291 291 291 292 293 294 294 295 295 295 295 295 294 294 293 293 292 292 291 290 290 290 289 288 286 286 286 285 285 284 284 280 281 283 285 286 287 287 288 288 287 287 287 287 287
283 284 283 284 284 284 284 284 284 284 284 284 284 285 285 286 285 285 284 285 285 285 285 285 285 285 285 285 286 286 286 286 287 287 287 287 288 288 288 289 289 289 290 290 291 291 291 292 293 293 293 293 294 294 293 293 293 293 292 292 290 289 288 287 286 285 286 286 284 285 284 283 285 285 284 285 286 287 287 287 286 286 286 287 287
282 283 283 283 283 283 283 283 283 284 284 283 283 283 284 284 283 283 283 283 283 283 283 283 284 284 283 283 284 284 285 285 285 285 286 286 286 287 287 287 288 288 288 289 289 289 290 290 290 290 291 292 292 293 293 293 292 292 291 291 290 290 290 289 288 286 286 285 285 285 284 284 284 285 284 284 286 286 286 285 286 286 287 287 287
Wind_Speed
6 8 7 11 13 14 16 16 15 14 14 14 13 13 13 12 11 10 9 8 8 8 9 9 9 10 11 11 11 10 10 10 9 10 9 8 8 8 7 7 7 8 9 10 11 12 11 11 11 11 11 11 11 12 12 12 12 11 11 12 12 13 13 13 13 12 12 12 11 11 9 11 10 10 11 12 12 11 11 11 9 6 6 7 12
11 9 8 8 13 13 15 16 15 15 15 14 14 13 12 12 11 10 10 9 8 8 8 8 9 9 10 11 10 10 10 10 10 10 9 8 7 7 7 6 6 7 8 9 10 12 12 10 10 10 10 10 10 10 10 11 11 11 11 11 11 11 11 11 11 10 10 10 10 10 9 10 10 11 11 12 11 11 10 10 12 6 4 11 13
8 8 9 9 12 13 13 15 16 16 15 15 14 13 12 11 11 11 10 10 9 8 8 8 8 8 9 10 10 10 10 10 9 9 9 8 7 6 6 6 5 6 8 9 10 11 12 11 10 11 10 10 11 11 11 11 11 11 11 11 11 10 10 10 10 9 8 8 8 8 9 8 10 10 11 11 10 10 9 11 10 10 7 13 12
11 9 8 10 12 12 12 14 14 15 14 13 13 11 12 12 11 11 10 10 10 9 8 8 8 8 9 9 9 9 9 9 9 9 8 8 7 6 6 6 5 5 7 8 10 10 12 12 11 11 10 10 11 11 11 11 11 11 11 11 11 11 10 10 9 9 8 6 6 7 4 4 4 9 10 10 11 12 10 11 11 12 13 12 13
9 9 9 9 9 11 13 13 14 13 13 13 12 12 13 13 12 11 11 10 10 10 9 9 9 10 9 10 10 9 9 9 9 8 8 8 7 6 6 5 4 3 6 9 10 10 12 12 11 11 10 10 11 11 11 11 11 11 11 11 11 10 10 10 10 9 7 5 3 4 3 3 3 6 9 10 10 11 11 11 12 12 12 13 13
7 8 9 9 9 9 13 12 14 14 13 12 12 12 12 13 13 12 12 11 11 10 10 10 11 10 10 10 10 9 9 9 8 8 7 7 7 7 5 4 4 3 5 7 10 11 11 12 11 10 10 10 10 11 11 11 10 10 10 10 10 10 9 9 8 8 6 4 5 3 3 3 3 2 8 9 10 11 10 11 11 11 11 13 13
9 8 9 10 9 9 13 13 14 15 15 14 13 13 13 13 13 13 12 12 12 12 11 11 11 11 11 10 10 9 9 9 8 8 7 7 7 6 5 5 4 5 6 7 9 9 11 11 10 10 10 10 10 10 10 10 10 10 10 9 9 9 9 8 7 8 6 4 3 3 3 3 3 2 7 8 8 9 10 11 11 11 12 12 13
5 7 8 9 9 10 14 14 14 16 16 14 13 13 14 13 12 13 12 12 12 12 12 12 12 11 11 10 9 9 9 8 8 7 7 7 7 6 6 5 6 7 7 7 7 9 9 10 9 9 9 9 9 10 10 10 10 10 9 9 9 9 8 7 7 7 6 3 3 3 3 3 3 3 5 7 9 9 10 12 11 10 11 12 11
7 7 8 9 9 13 14 14 15 15 17 15 14 13 13 14 13 13 12 12 12 12 12 13 13 12 11 10 10 9 9 9 8 8 7 7 7 7 6 7 8 8 8 7 7 7 8 8 8 9 8 8 9 9 9 9 9 9 8 8 8 8 7 7 7 6 4 3 3 3 3 3 2 3 4 7 8 10 11 10 9 11 10 10 10
6 6 7 8 8 14 14 14 15 15 18 16 14 14 15 15 13 13 13 12 12 12 12 12 12 12 12 11 10 10 10 9 9 8 7 6 6 7 8 9 8 9 8 8 7 7 6 7 6 6 7 8 8 8 8 8 8 8 7 7 7 8 7 6 7 5 3 3 3 3 3 4 2 2 5 7 11 11 11 8 6 5 6 10 10
6 6 6 7 8 13 15 15 15 14 16 15 14 15 16 16 14 14 14 13 13 13 13 12 12 12 11 11 11 11 10 10 9 8 7 6 6 7 8 8 9 9 9 8 7 6 6 4 4 5 6 7 8 8 8 8 8 7 7 6 7 7 7 6 6 4 4 4 4 4 3 5 3 1 8 9 10 10 10 8 8 9 9 10 10
6 5 6 6 8 13 14 15 14 14 15 14 14 15 16 16 16 16 15 14 14 14 14 13 13 12 12 11 11 11 11 10 9 9 8 7 7 8 8 9 9 9 8 7 5 4 3 2 2 4 5 6 6 7 7 8 7 6 6 6 7 7 7 7 5 4 4 4 5 3 3 2 1 3 8 8 8 9 8 9 8 9 10 9 9
5 5 5 5 6 11 14 15 14 14 14 14 14 16 16 16 16 16 15 15 15 15 14 14 12 12 12 11 11 10 10 11 10 10 9 8 8 8 9 9 7 6 5 4 1 2 3 3 4 2 7 6 5 6 6 6 6 5 5 5 6 7 7 7 4 4 4 4 3 3 2 1 0 3 7 7 8 9 8 8 8 9 9 9 8
5 5 4 4 5 10 14 14 14 14 15 14 14 15 15 14 16 15 15 15 15 14 14 14 13 13 12 12 11 11 11 10 11 11 10 9 10 9 8 7 7 5 4 3 3 6 4 2 4 9 8 7 6 6 6 5 4 3 4 4 5 6 7 5 5 4 4 4 3 3 3 1 1 4 6 7 6 6 6 7 6 6 7 6 7
6 5 5 4 4 6 12 13 14 14 15 14 14 15 16 15 15 15 16 15 15 14 15 14 12 12 11 11 11 11 11 11 11 11 11 11 10 9 8 7 6 6 5 3 1 2 4 1 10 10 8 7 6 5 5 3 3 3 4 4 6 5 6 4 3 3 3 3 2 2 3 2 3 7 6 5 4 4 4 4 5 6 5 6 6
3 5 5 5 4 4 7 10 13 14 14 14 14 15 15 15 15 15 15 15 14 14 13 13 12 12 11 10 11 11 12 12 12 12 11 11 11 11 9 8 6 5 5 3 3 4 3 1 9 9 8 7 6 5 4 3 2 3 5 5 6 6 6 5 3 3 3 3 3 3 3 3 3 6 6 4 4 2 2 2 2 3 3 4 4
4 4 5 6 5 5 7 8 9 13 13 13 14 14 15 15 15 15 15 14 14 14 13 12 12 12 11 10 10 9 11 11 12 13 11 11 12 11 10 8 7 6 5 4 5 7 5 11 9 9 8 7 6 5 3 2 2 3 4 6 6 6 5 5 4 3 3 3 3 3 3 3 5 5 2 6 4 3 3 3 3 3 2 3 4
4 5 6 6 6 6 7 7 8 9 8 10 12 14 15 15 15 15 14 14 14 14 13 12 11 11 10 9 7 8 10 9 11 11 12 10 10 9 8 9 9 9 6 5 6 1 6 10 9 8 7 8 6 4 3 2 3 3 5 6 6 6 6 5 4 3 3 3 4 3 3 4 5 4 5 5 4 4 3 2 2 2 2 1 2
2 4 4 5 6 6 7 7 7 7 8 7 7 10 14 14 14 14 14 14 13 13 13 12 10 10 10 9 8 9 9 9 9 10 11 10 9 8 7 7 9 8 6 5 3 4 11 8 8 8 8 7 6 4 2 2 3 4 5 6 6 6 6 4 3 3 3 3 3 4 3 3 3 4 4 4 4 4 3 2 1 1 1 2 3
1 3 4 5 4 6 6 7 7 8 8 7 7 7 10 13 12 13 13 13 13 12 12 11 10 9 9 9 9 8 9 8 10 8 9 9 9 6 7 6 6 7 7 6 5 8 9 9 7 7 8 7 5 4 3 2 3 4 5 5 5 6 4 3 3 3 2 2 2 2 4 3 2 3 3 3 3 3 3 3 2 2 3 3 4
2 3 5 5 5 5 6 6 7 8 8 8 6 7 8 11 10 11 12 12 11 12 11 10 9 8 8 8 8 6 5 5 7 6 7 6 8 8 8 6 6 6 6 6 7 9 8 8 7 7 7 7 6 5 2 3 3 4 5 5 5 4 3 4 3 2 2 2 2 2 5 1 2 3 2 2 3 3 3 4 3 3 4 3 2
5 5 4 4 6 6 7 7 6 9 8 7 6 6 6 8 8 7 7 8 8 9 8 6 6 4 6 5 4 5 4 4 5 6 5 5 7 9 8 7 7 7 7 7 7 9 9 8 7 7 7 7 7 3 2 4 4 4 5 6 4 3 2 2 3 2 1 2 2 3 4 1 3 3 3 3 3 4 4 3 3 3 2 2 3
7 6 6 5 6 6 6 7 8 7 8 8 6 6 6 5 7 7 6 7 7 7 5 5 4 5 4 4 4 4 5 5 5 5 6 7 7 9 8 7 7 8 8 8 8 10 9 8 7 6 7 8 4 3 1 1 1 4 4 3 3 3 3 2 2 2 1 1 1 5 4 1 3 3 4 4 4 4 4 4 3 2 3 2 1
5 4 6 3 5 6 7 7 7 6 7 7 6 5 5 4 5 5 5 5 6 6 5 5 4 5 5 4 4 4 4 5 5 7 7 5 6 8 10 9 9 8 9 6 7 8 10 9 9 8 6 4 3 2 1 0 0 1 2 3 3 3 3 3 2 2 1 1 1 4 5 2 3 4 4 4 4 5 5 4 4 4 3 4 4
4 5 5 4 3 3 4 6 5 6 7 7 7 6 5 4 5 5 4 4 4 5 6 5 5 6 6 5 4 4 4 4 4 4 4 5 5 5 5 4 4 4 6 4 4 4 7 4 4 6 4 3 2 1 1 1 1 0 1 1 3 2 2 2 2 2 1 0 1 3 4 4 2 4 5 5 5 5 5 5 5 4 4 3 4
5 6 5 4 4 3 4 3 4 6 7 8 8 6 6 6 5 6 6 3 4 4 5 5 5 6 5 5 4 5 5 5 4 5 5 5 5 5 5 5 5 5 4 6 4 4 4 5 5 5 4 3 3 2 1 1 3 1 1 1 2 2 2 2 2 2 1 1 1 3 4 5 4 4 5 6 6 6 6 6 7 5 4 5 4
7 6 4 4 3 3 4 4 5 5 7 6 6 6 6 6 5 4 7 7 4 4 4 5 6 5 5 5 5 4 4 4 4 5 6 5 5 4 5 5 6 5 4 5 5 4 5 5 5 5 4 4 2 1 1 1 1 2 1 1 1 2 2 3 2 2 1 1 2 3 3 4 5 5 6 7 7 7 7 7 6 6 6 5 5
6 7 6 6 5 4 5 6 7 6 6 5 6 6 6 6 6 5 4 5 7 6 4 4 5 5 6 5 5 4 5 4 4 4 5 4 5 5 4 4 4 4 3 4 5 3 4 3 5 4 4 4 4 2 1 2 2 1 2 2 1 1 2 2 2 2 2 2 2 2 3 3 5 6 7 7 9 8 9 9 9 7 6 7 5
10 10 8 7 6 5 5 7 7 8 6 6 7 6 5 6 5 5 5 4 3 4 7 5 3 3 5 6 5 5 4 4 4 4 2 4 4 4 4 4 4 3 3 3 3 4 3 4 4 5 4 4 3 3 1 3 3 2 2 3 2 1 2 2 2 2 2 2 3 3 4 5 5 6 7 8 9 8 10 10 9 7 8 8 7
9 8 8 7 7 7 5 6 7 7 5 5 6 6 6 6 6 6 6 4 4 4 2 3 6 5 4 5 6 5 5 5 5 4 4 4 3 2 3 4 4 3 4 5 3 4 5 3 3 3 3 3 3 3 1 4 4 3 3 3 3 4 3 3 3 3 2 2 2 3 5 5 5 6 7 8 9 9 10 10 10 9 9 9 7
9 10 10 9 9 7 5 4 4 4 4 6 5 5 4 6 6 5 4 5 6 4 2 2 2 3 4 4 4 5 6 5 5 5 4 4 4 4 4 3 4 4 4 5 3 4 4 5 6 6 5 4 5 2 2 3 4 4 3 3 4 3 3 3 2 2 2 3 3 3 3 5 5 6 6 8 9 9 10 10 10 11 10 10 8
10 11 9 9 9 9 7 4 2 2 3 4 3 4 5 5 4 4 5 5 4 5 5 4 4 4 4 5 4 3 3 5 6 6 5 5 5 5 4 4 5 4 5 4 5 4 4 3 2 2 2 3 4 2 1 2 4 4 3 4 3 3 4 3 3 3 3 3 3 4 2 2 4 4 4 5 7 9 10 10 11 11 11 10 9
6 7 9 9 12 11 9 7 1 1 1 1 1 1 2 2 4 4 4 4 4 4 5 5 5 4 4 5 5 5 3 4 5 6 7 6 6 5 5 5 5 5 5 4 4 3 3 3 2 2 1 1 1 1 1 0 2 4 3 4 3 4 3 3 4 3 4 4 4 3 3 2 2 3 3 3 4 5 6 8 9 11 12 11 11
7 7 9 13 9 8 8 8 9 4 2 2 1 1 0 0 1 2 3 4 4 4 4 4 5 5 5 5 6 6 6 6 5 4 4 5 6 6 7 6 6 5 3 4 5 5 4 4 4 3 3 3 4 3 2 4 4 3 3 4 3 4 3 4 4 5 4 4 4 4 5 4 3 2 1 2 3 3 3 3 4 6 9 11 12
8 10 11 9 10 11 9 9 10 9 7 4 4 2 1 1 2 2 3 3 4 4 4 4 4 5 5 5 6 6 7 7 7 8 7 6 5 5 5 6 5 3 5 5 5 4 4 5 5 5 2 2 3 3 3 4 4 5 4 3 5 5 3 5 3 4 4 4 3 4 5 4 4 4 3 2 2 2 3 2 2 3 5 7 10
11 9 9 10 12 12 12 11 12 11 9 8 6 4 3 3 2 3 3 2 3 3 3 4 4 3 3 4 5 6 6 5 4 3 4 5 6 6 7 4 4 4 5 4 5 5 5 4 4 5 5 4 3 5 3 4 3 5 4 3 4 4 5 5 4 4 5 3 5 4 4 4 4 4 4 3 3 1 2 2 2 2 2 3 4
9 11 11 11 13 13 13 13 13 11 10 10 9 7 7 7 7 7 6 5 5 4 4 2 1 1 2 4 4 4 4 4 5 5 5 5 6 6 6 5 4 5 5 5 5 5 5 5 3 4 5 6 5 5 4 4 5 4 2 3 3 3 4 4 5 5 4 4 4 5 5 5 4 4 3 3 3 2 2 2 2 2 3 4 4
9 10 10 10 9 10 10 12 11 10 9 9 8 7 7 8 8 7 8 8 7 6 5 5 5 4 4 4 4 2 2 3 5 5 5 5 5 5 3 4 5 5 5 5 5 2 3 4 5 4 5 5 6 6 6 4 3 4 4 4 4 2 4 4 5 4 5 5 5 5 6 4 4 5 4 4 3 3 3 4 3 2 3 4 5
9 10 11 11 11 11 11 13 13 12 10 9 8 8 8 8 8 9 10 9 8 8 8 9 7 7 6 5 4 4 4 4 3 2 3 4 4 4 4 5 6 6 5 5 3 4 4 5 6 5 3 4 3 4 4 4 4 4 4 4 3 4 4 4 4 5 5 5 6 6 3 5 4 5 5 4 4 4 4 4 3 3 3 4 5
10 10 12 13 13 12 10 12 13 11 9 9 9 8 8 9 10 10 12 10 9 9 10 8 8 9 9 9 8 8 7 6 5 5 4 4 2 2 1 2 3 3 4 5 6 7 9 8 8 7 5 2 0 2 2 3 1 1 4 4 3 4 5 5 4 5 5 5 6 4 5 5 6 6 4 5 5 4 4 4 4 5 4 5 6
13 13 13 13 13 11 13 14 10 11 11 10 9 8 8 6 8 8 7 7 8 9 11 9 10 9 11 11 11 9 9 9 8 7 7 6 5 5 5 4 4 1 2 4 3 4 2 2 2 2 5 4 3 2 2 3 1 3 2 4 6 4 5 4 5 5 6 6 3 5 6 6 7 5 6 5 5 4 5 5 5 5 5 4 6
13 12 13 11 11 12 13 11 10 11 11 9 7 7 6 3 4 4 6 7 9 10 9 10 9 9 12 12 11 11 11 11 10 9 9 8 7 6 6 6 5 4 4 5 4 3 2 0 2 2 1 5 4 3 3 5 0 5 5 5 4 5 6 5 6 7 7 5 5 6 7 6 7 6 4 5 5 5 6 6 5 5 5 5 5
10 12 10 13 14 13 11 10 10 10 10 10 9 7 5 6 6 6 5 6 6 6 8 8 9 10 12 12 12 12 11 11 11 10 10 9 8 7 6 4 4 4 4 4 3 3 3 2 1 2 1 0 0 2 5 7 4 2 1 3 5 4 4 3 5 7 6 6 6 7 7 6 8 6 5 5 6 6 6 4 5 5 6 5 6
11 12 13 12 11 11 11 11 11 10 10 10 9 6 5 4 6 7 8 10 5 5 8 12 13 14 13 12 12 11 12 11 12 11 9 10 9 9 7 7 6 4 3 4 4 3 2 2 2 3 3 2 2 4 4 4 3 4 3 5 3 1 8 4 4 5 6 8 7 9 6 8 8 5 4 7 7 6 6 5 6 6 5 5 5
12 12 11 11 8 10 10 10 10 10 10 11 10 9 11 11 8 9 9 10 12 12 12 12 10 9 11 12 11 12 12 12 11 12 11 10 10 9 9 8 7 6 5 5 4 2 0 1 1 2 3 4 5 2 0 3 5 5 2 2 2 1 5 6 3 6 1 2 6 8 6 6 6 6 5 7 5 6 6 6 7 5 6 6 6
11 9 8 9 9 10 10 11 10 10 11 11 10 10 10 10 11 11 11 9 10 11 11 9 10 10 8 5 11 12 12 11 11 12 12 10 11 10 9 9 9 7 6 5 4 4 3 2 2 2 3 4 4 4 3 2 6 6 4 2 1 4 2 2 3 9 3 5 4 3 6 5 4 4 5 6 7 7 6 7 5 7 7 6 6
8 6 7 8 9 9 9 10 10 10 10 11 11 9 11 10 11 10 9 8 8 6 4 5 6 6 7 10 8 10 11 11 11 11 11 11 10 10 9 8 8 8 7 7 7 7 6 4 2 1 3 3 1 5 6 5 1 4 6 7 4 1 1 2 7 3 10 4 1 4 6 5 6 5 7 8 8 7 7 6 7 8 7 6 6
5 6 7 8 10 10 10 11 10 11 10 9 12 10 10 9 10 10 9 9 8 6 7 6 7 7 11 10 9 9 10 10 11 11 11 10 10 10 9 9 9 8 7 7 7 7 7 6 6 4 3 3 3 4 6 5 5 4 4 8 8 4 3 2 3 7 7 10 11 3 3 6 4 6 8 9 9 9 9 8 8 7 6 6 7
7 8 7 6 6 8 9 10 12 11 10 11 11 11 11 10 9 8 11 8 7 7 5 7 9 8 11 10 11 10 11 11 12 12 12 11 10 10 10 10 9 8 7 8 7 7 8 8 9 8 7 5 3 4 4 6 5 6 5 4 5 7 5 5 3 1 6 8 14 8 9 4 3 6 8 9 8 8 9 9 7 7 7 8 8
5 5 5 6 7 8 11 13 13 10 9 11 11 12 11 9 12 11 11 9 7 6 8 10 9 7 10 10 8 9 9 10 10 11 12 12 11 10 10 10 9 8 8 7 8 9 8 7 7 6 6 6 5 4 5 5 5 5 4 5 4 3 3 3 4 5 6 8 13 12 8 7 13 7 6 8 10 10 9 8 7 7 8 9 8
5 6 8 8 7 9 9 13 9 9 10 10 11 12 11 11 11 11 11 10 9 9 11 11 10 11 10 9 9 7 7 8 8 9 10 10 10 10 10 9 8 8 9 9 8 7 6 6 5 5 6 7 6 7 6 5 5 6 6 4 6 6 7 6 5 4 7 7 6 10 7 8 10 13 6 7 8 8 7 6 8 9 10 9 9
Wind_Direction
227 187 185 194 191 182 177 178 177 175 173 172 170 165 162 161 160 159 153 149 144 142 139 138 137 138 138 138 135 132 130 128 126 124 117 113 110 109 107 108 111 109 107 113 114 109 101 98 93 91 88 84 81 78 76 72 72 68 64 62 58 60 62 59 58 52 45 40 47 57 66 76 82 80 81 79 74 70 66 62 54 43 47 47 55
177 190 180 190 193 187 178 177 178 177 173 173 172 169 166 165 164 159 156 155 154 145 144 142 141 142 145 140 137 137 135 132 129 127 123 117 108 109 106 103 105 110 115 112 115 108 103 98 96 91 87 85 79 74 68 66 69 66 62 57 55 53 57 58 53 47 46 43 34 31 27 70 77 79 78 77 73 71 70 68 63 52 44 64 56
143 170 175 185 192 191 180 178 178 178 176 176 169 171 169 169 165 162 161 159 154 153 152 147 145 146 148 141 135 136 135 133 131 127 125 118 112 102 96 102 107 118 123 129 114 101 99 95 88 84 80 78 75 69 63 57 52 53 54 52 49 48 47 43 36 30 28 25 30 30 24 32 76 81 82 79 75 68 69 70 68 65 63 64 61
149 169 170 180 191 190 184 180 180 178 179 173 172 169 169 168 168 165 162 164 158 156 155 154 153 154 153 142 139 139 137 135 133 131 129 120 101 81 86 85 88 115 124 124 110 111 100 94 88 83 79 76 74 69 62 55 48 46 45 45 42 38 35 31 23 21 24 17 32 43 31 22 31 89 91 90 85 72 65 69 72 69 65 60 59
154 159 170 175 186 191 188 181 180 180 180 178 172 173 171 166 170 168 167 169 166 162 159 158 160 159 162 154 147 144 144 143 139 138 133 123 106 88 89 90 87 108 133 126 118 106 96 90 86 79 74 70 69 67 63 56 50 43 40 40 38 35 30 23 14 13 21 22 41 53 38 25 19 87 96 95 90 80 73 66 61 61 63 62 59
160 160 168 176 180 188 191 184 179 180 181 179 175 175 174 173 172 172 173 173 170 168 166 165 166 164 167 161 155 151 153 150 148 144 138 133 123 110 103 102 106 121 117 121 116 108 98 92 88 82 74 68 64 63 60 55 50 44 38 36 37 35 29 19 10 17 24 66 84 62 36 25 20 48 98 99 99 93 85 77 71 66 62 55 52
160 165 167 174 181 185 189 186 180 180 180 181 177 178 179 179 178 176 178 177 175 174 172 174 171 167 168 166 161 159 159 159 155 150 147 145 136 125 119 117 119 113 118 123 117 112 101 94 88 84 77 68 62 59 54 51 46 41 36 32 34 34 28 19 13 22 39 72 87 64 44 30 25 8 95 95 89 94 89 85 75 69 65 60 55
154 165 173 174 179 187 187 186 182 182 181 180 178 181 182 181 182 182 182 182 179 179 178 177 176 174 172 169 171 168 166 164 159 156 157 150 146 138 135 131 120 117 127 125 117 104 99 93 88 80 75 68 63 57 52 47 42 36 32 29 31 36 31 21 24 28 48 61 74 70 60 33 27 29 71 86 92 78 82 80 74 66 61 61 59
167 173 172 177 180 184 188 187 183 183 184 180 179 182 184 184 184 186 186 186 187 184 184 183 180 178 179 176 175 176 172 170 167 165 165 160 157 149 136 126 129 131 132 132 128 118 103 88 83 77 70 66 61 56 50 45 39 34 28 26 32 40 43 29 31 38 46 56 68 76 66 48 41 44 82 90 88 85 73 61 62 71 69 63 55
169 172 176 176 181 185 187 187 186 185 188 183 181 183 186 186 185 186 187 191 191 190 191 191 187 185 180 184 180 180 181 178 171 171 169 164 162 150 139 134 135 133 133 135 127 115 98 85 83 67 65 58 51 49 48 43 37 31 28 31 34 49 56 46 45 43 48 60 60 54 80 80 64 67 109 84 80 78 77 84 91 85 76 70 60
170 176 177 181 184 186 188 189 188 187 191 186 182 186 189 188 185 187 194 194 194 192 194 196 195 191 191 189 187 187 186 181 178 170 166 166 166 154 148 139 137 141 143 141 136 118 109 93 74 73 67 56 46 40 39 38 34 29 29 32 40 55 66 66 64 56 53 56 54 35 41 68 75 104 110 97 89 80 72 67 65 68 70 65 61
176 175 179 183 186 188 189 190 190 188 191 190 184 187 192 190 189 192 193 196 196 194 196 199 198 196 198 197 196 195 191 184 180 170 168 166 169 161 152 147 153 152 149 158 137 128 136 131 90 102 95 79 60 44 35 33 33 29 29 34 43 56 58 64 71 70 65 60 57 39 25 35 65 115 109 106 94 83 78 72 66 57 56 54 56
180 178 181 180 185 192 192 191 191 190 192 190 189 189 194 194 190 192 195 197 198 197 197 199 198 201 200 203 202 199 195 188 187 175 166 171 164 161 161 156 155 165 99 80 58 186 235 127 183 196 116 93 72 50 38 33 30 35 38 41 53 65 64 59 59 64 59 56 54 40 34 352 318 128 100 95 88 83 76 67 53 48 52 51 49
173 185 183 184 192 195 193 192 192 192 194 192 189 190 194 196 191 193 195 197 197 196 201 197 200 201 202 208 205 202 195 195 190 177 169 174 170 169 163 157 153 147 131 114 55 17 352 280 110 114 107 90 67 49 45 38 33 43 46 50 67 83 80 70 68 70 65 55 45 34 27 336 268 152 115 102 90 79 65 55 51 50 37 45 44
175 183 185 184 192 199 200 196 194 194 195 193 190 192 194 195 195 196 199 196 196 198 201 199 198 202 205 209 208 206 191 200 196 184 174 177 177 174 167 168 164 160 151 162 83 314 325 42 125 115 104 89 72 55 39 27 32 46 50 48 69 83 86 84 69 69 71 65 48 40 20 349 211 139 126 107 102 85 70 55 53 50 50 50 42
201 185 177 186 191 195 200 206 200 198 198 195 191 193 195 194 192 195 197 198 199 199 204 202 200 201 205 209 208 202 193 199 193 192 185 179 178 176 177 185 180 181 189 172 200 217 222 97 119 107 104 95 84 72 55 27 19 44 40 53 67 77 81 89 75 59 63 59 38 38 15 5 45 166 145 122 95 92 69 65 55 37 52 45 27
185 189 181 191 191 193 199 204 205 203 202 200 195 194 196 196 193 195 196 197 199 202 206 206 203 202 206 209 209 195 196 199 193 194 194 188 182 178 179 195 182 197 195 222 224 248 260 119 117 117 111 100 89 81 77 51 55 56 48 62 76 76 70 82 74 55 53 46 40 23 3 7 47 46 176 155 137 102 96 68 74 72 50 39 37
190 183 196 192 192 197 197 201 204 205 205 206 202 198 198 199 197 196 198 198 198 199 204 207 207 203 203 208 206 190 192 201 198 197 194 197 184 178 175 178 190 198 203 213 243 144 113 125 121 120 113 103 99 99 93 96 98 74 57 67 79 83 79 76 80 50 49 44 24 8 9 28 68 78 80 94 121 108 105 108 82 75 49 39 68
211 196 207 195 200 195 199 201 204 206 206 205 206 205 202 203 200 199 199 199 199 200 200 204 206 203 200 198 191 183 189 191 196 195 197 193 179 174 174 190 193 213 188 203 184 152 119 126 127 120 114 111 113 111 118 113 111 82 71 72 74 79 76 78 74 59 48 40 14 16 346 15 79 93 90 105 116 124 125 134 140 120 64 119 148
269 219 212 217 207 198 197 202 204 207 207 207 209 206 208 207 206 202 203 202 201 202 202 201 201 200 198 192 186 183 185 191 193 199 195 185 181 174 186 191 201 177 179 177 180 130 134 131 133 127 123 123 122 124 115 122 111 78 77 82 79 85 75 75 81 64 45 35 18 2 345 349 142 128 122 118 123 136 150 142 147 158 153 143 154
266 233 211 211 210 206 204 201 204 206 208 209 212 211 207 208 213 211 208 206 203 204 204 201 197 200 194 190 182 182 180 184 195 198 200 189 181 178 186 184 177 172 170 171 174 139 144 143 140 138 131 130 119 112 110 136 95 81 78 79 86 79 84 85 77 73 51 17 13 336 341 339 175 185 181 159 157 161 158 154 162 171 167 163 96
247 244 227 210 204 211 208 204 201 206 204 207 209 212 210 201 209 210 210 209 209 207 204 198 194 194 199 187 181 179 175 179 187 196 192 190 183 183 185 180 179 171 164 173 182 154 152 152 148 145 143 120 100 76 33 26 56 52 78 91 79 91 75 85 83 74 54 17 6 338 347 203 177 179 172 160 164 159 162 165 162 170 164 157 172
262 242 243 208 208 205 206 208 206 200 201 205 207 210 210 195 211 210 205 204 204 204 203 198 186 188 189 191 186 182 179 176 180 191 186 188 183 187 187 183 182 170 166 177 184 162 161 159 150 151 129 103 90 92 70 31 19 29 67 79 101 102 98 87 87 76 65 347 348 341 343 233 191 172 171 177 170 175 171 176 172 159 173 173 187
291 319 282 250 207 210 207 209 205 196 198 203 204 205 209 197 202 211 205 201 201 199 198 192 190 187 185 187 184 183 184 178 179 189 179 178 188 191 190 186 182 171 172 176 182 165 161 165 170 125 92 83 100 104 99 36 19 23 70 85 104 131 128 139 135 137 93 340 300 326 350 278 207 195 184 177 182 184 186 180 194 192 171 182 193
263 269 270 288 306 268 227 213 199 195 197 200 199 203 195 199 199 206 204 196 201 195 196 192 188 187 186 185 177 174 184 181 172 169 184 177 173 185 192 180 172 172 172 172 172 179 154 146 108 104 122 122 127 177 144 191 254 50 99 87 113 126 139 140 152 151 182 279 289 333 335 345 275 227 207 203 189 194 196 202 194 196 191 192 219
272 272 254 253 237 240 246 254 209 204 200 199 199 196 189 200 196 197 208 214 201 202 194 192 191 186 183 180 165 177 187 183 175 178 182 179 181 186 186 172 165 180 172 170 173 161 141 136 132 134 147 137 167 176 186 183 201 225 169 113 126 143 156 167 169 176 216 276 301 319 341 328 316 299 249 212 200 204 210 213 209 197 201 204 218
299 273 274 259 240 235 220 221 221 212 210 204 197 192 202 202 194 188 193 204 209 206 207 199 191 181 178 171 171 185 184 184 184 189 189 184 189 190 184 174 174 179 179 165 180 172 158 150 149 156 148 151 143 164 254 284 230 218 227 174 138 156 174 175 187 197 229 272 287 311 320 308 302 295 281 231 217 211 218 228 217 216 209 201 223
342 332 323 297 271 233 210 207 216 206 209 196 196 202 204 200 200 189 200 195 190 204 219 208 183 181 172 173 183 179 180 186 189 206 202 180 197 186 180 183 181 180 169 170 169 162 156 151 150 146 153 164 170 209 273 298 284 272 239 217 187 175 215 203 202 219 233 260 279 289 291 287 288 291 293 251 224 214 222 224 231 214 207 219 217
358 340 327 327 315 277 216 214 212 210 199 186 201 201 197 202 198 198 203 190 201 197 195 186 201 173 175 169 177 186 188 183 187 208 199 197 192 184 179 189 180 171 152 192 170 165 165 166 169 172 175 169 176 211 289 294 297 297 256 235 224 214 232 237 230 244 260 266 285 283 282 283 284 288 283 282 244 219 226 230 234 225 219 227 207
341 320 330 328 320 315 257 224 216 211 193 183 205 193 195 197 203 208 207 187 203 197 186 191 171 167 174 177 180 186 190 186 185 182 188 210 190 180 190 188 186 167 177 192 191 171 176 168 166 168 179 180 186 206 188 281 292 286 280 242 229 223 203 211 227 234 259 283 283 290 294 295 297 292 283 282 273 235 232 232 232 233 232 234 211
335 344 345 338 324 324 305 255 226 208 179 201 196 199 179 202 204 201 192 201 206 201 185 181 161 153 160 173 187 191 186 185 182 180 194 190 191 187 210 189 184 190 191 200 175 188 176 184 184 183 186 186 207 199 174 252 277 286 273 256 240 230 227 221 226 241 254 264 283 287 301 307 308 308 305 287 286 269 243 245 235 240 242 244 232
353 349 339 328 339 348 333 317 276 195 180 206 195 197 195 199 187 182 197 197 183 194 196 188 181 166 162 168 179 202 196 192 181 181 189 188 190 197 201 194 212 196 193 192 184 182 182 184 163 172 182 181 186 193 174 205 265 266 273 258 266 239 239 228 222 224 234 250 257 275 288 295 312 316 320 315 281 269 251 248 245 243 252 249 235
343 337 333 350 4 354 355 344 7 129 173 192 223 244 200 174 172 194 192 170 178 183 188 189 189 178 168 171 183 193 190 195 201 189 185 188 191 194 198 208 214 204 200 190 165 151 131 126 131 111 121 116 153 252 1 317 275 276 278 260 266 252 247 229 232 225 230 231 238 240 253 252 268 302 322 331 342 323 274 257 262 257 248 244 242
344 345 358 14 3 7 5 13 7 43 59 54 74 97 69 133 156 166 163 168 181 182 195 200 198 195 186 194 197 201 201 195 191 201 191 195 195 197 198 205 208 205 180 163 176 168 160 157 175 146 173 177 208 230 230 268 265 292 289 282 281 256 247 238 233 228 232 236 232 228 228 229 227 232 259 312 341 337 304 272 280 292 264 245 241
359 7 11 359 15 19 15 23 18 23 22 36 74 84 85 114 139 147 163 176 176 189 196 194 200 209 204 212 204 200 204 202 198 191 189 189 193 206 207 216 199 178 180 187 173 163 161 186 158 180 167 200 211 229 220 248 263 266 264 281 272 281 280 256 263 259 251 253 258 246 240 232 223 220 217 219 270 303 337 328 291 301 298 262 242
10 2 7 11 24 21 20 29 23 25 25 21 14 44 82 109 113 133 152 173 170 192 192 197 194 190 198 203 204 203 204 209 202 191 192 187 193 201 214 196 180 172 183 169 158 177 184 174 184 170 177 225 208 244 205 236 248 260 285 296 289 301 289 294 288 282 265 278 259 260 256 252 244 231 223 220 224 252 299 335 329 313 347 337 281
6 13 14 18 25 18 22 26 23 20 21 22 30 36 37 38 34 32 33 36 31 20 11 15 30 251 218 207 209 209 216 203 196 191 187 201 204 210 212 190 167 178 179 178 187 186 177 179 177 200 195 201 204 231 233 222 231 240 269 286 290 306 292 288 279 264 284 260 263 266 265 259 256 254 242 241 243 255 281 280 289 328 344 324 307
13 18 21 27 26 21 24 25 21 22 25 28 29 39 44 51 50 52 49 44 31 22 21 33 27 19 9 347 340 315 268 222 200 195 207 209 207 208 190 170 169 172 180 180 197 138 164 173 194 207 201 189 203 213 230 230 233 248 261 256 256 258 265 278 269 271 264 266 261 254 246 267 276 262 256 247 241 245 250 260 272 299 308 304 285
16 17 25 27 30 25 25 25 23 13 16 26 30 37 40 49 53 46 46 41 37 38 31 33 16 22 19 12 26 27 11 348 336 316 234 209 199 201 191 192 176 178 172 171 152 162 169 192 199 208 214 220 211 215 221 195 226 242 255 268 293 270 262 251 260 269 268 251 251 254 283 269 263 257 253 248 250 241 239 251 259 267 275 283 281
21 19 27 29 28 28 25 30 22 10 11 26 28 33 41 42 40 35 40 30 36 39 39 40 33 34 22 24 22 21 22 28 26 16 357 351 328 311 262 136 171 162 174 181 193 187 195 190 207 194 195 234 25 151 138 147 153 284 293 306 275 253 256 244 255 256 257 254 253 276 260 254 246 253 255 251 248 241 237 237 234 237 246 260 270
25 21 30 28 30 28 31 29 14 17 23 16 22 28 30 31 43 51 57 39 41 41 40 26 36 34 32 33 32 30 27 29 25 27 23 20 20 20 26 21 14 354 267 236 222 210 215 195 139 154 182 194 235 151 150 123 113 306 324 278 282 252 255 252 252 252 246 247 265 263 251 248 246 244 244 250 250 251 246 238 235 237 241 245 259
18 22 28 27 29 30 36 28 20 24 26 20 14 36 25 40 82 53 77 47 39 42 36 27 23 32 34 32 28 26 29 31 30 32 31 28 24 24 28 25 31 19 5 10 11 1 1 23 110 142 190 190 224 162 169 129 2 224 271 321 315 291 248 236 251 250 240 236 231 235 244 242 250 241 248 244 250 247 245 242 242 241 239 237 242
28 27 21 29 27 29 28 28 25 26 23 20 24 26 16 28 50 42 54 83 57 53 56 39 31 35 35 31 26 24 24 27 25 26 32 28 29 27 21 19 37 31 19 15 23 22 25 2 327 265 214 14 227 153 181 203 204 115 117 9 303 341 331 309 270 257 248 234 226 234 235 240 243 239 231 237 242 240 243 244 246 242 243 239 241
32 28 24 27 29 28 26 28 29 27 24 22 30 22 39 42 46 57 55 68 59 34 48 37 29 30 30 26 28 23 25 28 24 28 30 31 27 25 17 21 23 35 38 15 19 9 27 10 353 318 360 303 249 242 205 219 152 143 276 212 236 68 311 293 287 278 229 227 225 236 228 232 236 238 223 233 236 237 240 234 238 240 243 244 243
32 28 23 25 29 28 26 31 33 30 27 22 24 31 41 39 34 46 46 41 30 28 30 25 23 26 30 26 20 23 26 28 25 26 26 25 26 23 21 17 19 12 16 14 8 8 122 183 215 258 260 270 287 297 317 247 246 255 184 110 313 296 230 259 339 276 335 253 244 240 246 243 246 237 232 245 246 239 236 238 239 240 241 240 240
32 22 18 25 30 31 32 35 37 34 29 27 25 41 51 54 48 46 41 41 40 27 25 12 10 20 17 13 29 29 26 26 25 23 23 22 24 20 20 19 17 10 13 8 353 351 340 309 248 220 252 251 276 329 306 232 242 258 275 296 171 254 274 261 1 290 330 226 271 281 244 252 266 267 256 260 250 247 238 245 237 239 235 236 237
23 11 24 29 32 36 37 40 41 37 30 30 29 40 52 54 62 66 66 60 64 43 28 22 23 11 24 30 27 30 30 30 24 25 20 19 21 21 19 21 20 17 5 10 7 1 351 344 343 278 259 285 303 273 270 270 224 261 255 254 258 209 117 345 268 355 299 323 301 264 264 243 238 237 246 246 244 245 245 237 241 237 236 234 237
8 23 35 30 34 34 40 41 42 41 34 31 39 38 54 50 56 59 57 56 57 48 27 27 31 26 34 23 23 24 27 31 27 23 22 19 17 20 19 22 24 18 16 22 11 355 354 351 358 355 338 313 280 259 270 261 249 270 212 246 255 240 205 264 200 249 280 295 290 314 259 261 247 239 239 246 242 235 241 232 235 237 236 237 234
24 30 31 30 35 39 45 48 47 42 33 37 47 44 52 54 57 56 59 45 49 46 43 43 40 30 43 28 30 23 24 25 26 23 20 18 18 15 16 21 23 18 20 20 17 13 13 6 1 357 354 333 305 286 293 283 274 268 276 268 243 250 241 230 230 175 258 277 280 274 281 319 252 251 249 240 247 240 235 237 231 232 233 237 227
21 30 39 39 41 44 45 50 43 40 34 40 47 51 52 56 59 55 61 52 42 42 48 43 38 31 44 35 30 31 26 27 23 24 22 17 16 14 16 16 14 15 20 20 20 18 14 11 6 356 349 344 330 317 291 291 290 293 280 294 289 296 290 270 219 234 249 225 262 275 278 281 284 262 227 245 244 239 236 233 233 230 234 235 230
28 40 40 39 38 44 48 56 46 44 38 41 45 48 49 50 58 56 57 54 45 47 45 38 31 34 36 31 31 30 31 30 24 25 26 18 17 18 16 13 14 15 15 15 15 13 12 8 2 4 4 358 343 337 328 308 297 295 290 276 273 268 268 266 263 226 238 260 271 268 267 248 248 274 253 246 245 246 234 225 231 236 234 235 234